Flag for Vatican City State Weather past 2 weeks in Vatican City, Vatican City State

Now
59 °F

Clear.


Feels Like: 59 °F
Forecast: 49 / 76 °F
Wind: 5 mph from South

Location: Rome / Ciampino

Current Time: May 28, 2015 at 11:14:49 PM

Latest Report: May 28, 2015 at 10:45 PM


Visibility: 10 mi

Pressure: 30.01 "Hg

Humidity: 77%

Dew point: 52 °F

Location of Vatican CityLocation

Historic Weather in Vatican City — Graph

°F

Vatican City temperature yesterday

Maximum temperature yesterday: 73 °F (at 11:15 AM)
Minimum temperature yesterday: 57 °F (at 12:15 AM)
Average temperature yesterday: 61 °F

Past Weeks' High & Low Weather Summary

 TemperatureHumidityPressure
High86 °F (May 17, 2:15 PM)100% (May 28, 5:45 AM)30.12 "Hg (May 28, 5:45 AM)
Low48 °F (May 22, 5:45 AM)22% (May 28, 5:15 PM)29.65 "Hg (May 15, 11:45 AM)
Average64 °F67%29.88 "Hg
* Reported May 13 9:15 PM — May 28 9:45 PM, Vatican City, Weather by CustomWeather, © 2015

Note: Actual official high and low records may vary slightly from our data, if they occured in-between our weather recording intervals... More about our weather records

Advertising

Vatican City weather history for previous 24 hours

 ConditionsComfort  
Time TempWeatherWind HumidityBarometerVisibility
9:45 PM
Thu, May 28
63 °FClear.2 mph68%30.01 "Hg10 mi
9:15 PM64 °FSunny.5 mph60%30.01 "Hg10 mi
8:45 PM70 °FSunny.3 mph46%29.98 "Hg10 mi
8:15 PM72 °FSunny.9 mph27%29.98 "Hg10 mi
7:45 PM72 °FSunny.14 mph25%29.98 "Hg10 mi
7:15 PM72 °FSunny.15 mph25%29.98 "Hg10 mi
6:45 PM72 °FPassing clouds.15 mph23%29.98 "HgN/A
6:15 PM73 °FPassing clouds.15 mph23%29.98 "HgN/A
5:45 PM73 °FSunny.16 mph22%29.98 "Hg10 mi
5:15 PM75 °FSunny.13 mph22%30.01 "Hg10 mi
4:45 PM72 °FSunny.14 mph23%30.01 "Hg10 mi
4:15 PM72 °FPassing clouds.15 mph27%30.01 "HgN/A
3:45 PM70 °FPassing clouds.9 mph25%30.01 "HgN/A
3:15 PM72 °FPassing clouds.9 mph27%30.01 "HgN/A
2:45 PM72 °FPassing clouds.12 mph27%30.01 "HgN/A
2:15 PM72 °FPassing clouds.14 mph27%30.01 "HgN/A
1:45 PM72 °FPassing clouds.15 mph29%30.01 "HgN/A
1:15 PM72 °FPassing clouds.12 mph29%30.01 "HgN/A
12:45 PM70 °FPassing clouds.10 mph29%30.01 "HgN/A
12:15 PM70 °FPassing clouds.12 mph27%30.01 "HgN/A
11:45 AM68 °FPassing clouds.12 mph30%30.04 "HgN/A
11:15 AM66 °FPassing clouds.12 mph37%30.04 "HgN/A
10:45 AM64 °FPassing clouds.7 mph46%30.04 "HgN/A
10:15 AM63 °FPassing clouds.8 mph56%30.04 "HgN/A
9:45 AM61 °FPassing clouds.5 mph59%30.04 "HgN/A
9:15 AM59 °FPassing clouds.6 mph63%30.04 "HgN/A
8:45 AM59 °FPassing clouds.7 mph68%30.04 "HgN/A
8:15 AM55 °FPassing clouds.8 mph77%30.04 "HgN/A
7:45 AM54 °FPassing clouds.9 mph77%30.04 "HgN/A
7:15 AM52 °FPassing clouds.7 mph88%30.01 "HgN/A
6:45 AM52 °FPassing clouds.5 mph88%30.01 "HgN/A
6:15 AM52 °FPassing clouds.3 mph88%29.98 "HgN/A
5:45 AM54 °FClear.2 mph100%29.98 "Hg10 mi
5:15 AM54 °FPassing clouds.5 mph94%29.98 "HgN/A
4:45 AM55 °FPassing clouds.2 mph94%29.98 "HgN/A
4:15 AM55 °FPassing clouds.1 mph94%29.98 "HgN/A
3:45 AM57 °FPassing clouds.3 mph88%29.98 "HgN/A
3:15 AM57 °FPassing clouds.3 mph88%29.98 "HgN/A
2:45 AM57 °FPassing clouds.3 mph88%29.98 "HgN/A
2:15 AM57 °FPassing clouds.1 mph88%29.98 "HgN/A
1:15 AM57 °FPassing clouds.No wind88%29.95 "HgN/A
12:45 AM57 °FPassing clouds.No wind88%29.95 "HgN/A
12:15 AM57 °FPassing clouds.No wind88%29.95 "HgN/A
11:45 PM
Wed, May 27
59 °FPassing clouds.No wind88%29.95 "HgN/A
11:15 PM59 °FPassing clouds.No wind88%29.95 "HgN/A
Weather by CustomWeather, © 2015

See weather overviewHow to use our weather pages